{"data":{"norad_id":68189,"epoch":"2026-09-19T22:00:17.667360Z","epoch_age_seconds":101973,"freshness":"FRESH","line1":"1 68189U 26050Y   26262.91687115  .00015087  00000+0  45673-3 0  9999","line2":"2 68189  53.1581  80.7895 0001046  94.5023 265.6099 15.34402052 30374","mean_motion":15.34402052,"eccentricity":0.0001046,"inclination_deg":53.1581,"raan_deg":80.7895,"arg_perigee_deg":94.5023,"mean_anomaly_deg":265.6099,"bstar":0.00045673,"rev_number":3037,"period_min":93.847632576028,"perigee_km":461.98158998629,"apogee_km":463.41269248864,"semimajor_km":6840.8341412375,"source":"CELESTRAK","updated_at":"2026-09-20T09:00:43.803654Z"}}